Showing default

LEMUR 2 GREENBERG, 42837

Orbit data source: Space-Track

LEMUR 2 GREENBERG, 42837 is a payload satellite owned by Spire (US) in SSO that was launched on Fri, 14 Jul 2017 UTC via a SOYUZ-2-1A launch vehicle from the Tyuratam Missile And Space Complex (TTMTR). Payload-class satellites include a variety of spacecraft equipped with specific instruments for various scientific and technological missions. These include communications satellites like Starlink; space stations such as the ISS; scientific satellites like the Hubble; Earth observation satellites from companies like Planet Labs, Umbra, and HawkEye 360; GPS; miniature CubeSats for education and research; and military/defense satellites.

Loading next visibility...
Identifier
42837, 2017-042N
Orbit
SSO
Country
Flag of USUS
Related business
Manufacturer
Spire/Glasgow
Mission
Operational Commercial Com/MetRO
Bus & Motor
CUBESAT 3U, Unknown motor
Mass
4 kg wet, 4 kg dry
Launch date (UTC)
2017-07-14 (8 years ago)
Launch vehicle
SOYUZ-2-1A
Launch site
Tyuratam Missile And Space Complex (TTMTR)
Object type
Payload
Rocket body
Debris
Shape & HBR
Box, 0.5 m
Radar Cross Section
0.093 m², Small (<0.1 m²)

Expand to show TLE details & history
Last TLE update: 22 hours ago

TLE from 22 hours ago
0 LEMUR 2 GREENBERG
1 42837U 17042N   25344.74777251  .00023531  00000-0  96274-3 0  9991
2 42837  97.3710 162.2653 0009398 319.8639  40.1903 15.24290956459611
Epoch: 2025-12-10T17:56Z
TLE epoch observation values (Epoch: 2025-12-10T17:56:47.544Z)
Latitude
-0.0001°
Longitude
173.35356°
Altitude
491.081 km
Speed
7.622 km/s
True Right ascension
10h 49m 03s
True Declination
0° 00' 00"
Sunlit
Object was in daylight at epoch
Visualization orbit readout
Latitude
Unknown
Longitude
Unknown
Altitude
Unknown
Speed
Unknown
Apparent Right ascension
Unknown
Apparent Declination
Unknown
Sunlit
N/A
Visualization observer readout
Local Sidereal Time
13:53:30
Azimuth
Unknown
Elevation
Unknown
Doppler factor
Unknown
Orbital elements
Apogee altitude
496.329 km
Perigee altitude
483.419 km
Semi-major axis
6,868.011 km
Eccentricity
0.00094
Inclination
97.371°
RAAN
162.2653°
Arg. of periapsis
319.8639°
True anomaly
40.25986°
Mean anomaly
40.1903°
Eccentric anomaly
40.22507°
Mean motion
3.81326 °/min
Orbital period
94.41 mins
BSTAR
0.00096274
Loading maneuver chart data...
Computing Atmospheric mass density...
Loading historical data...
Loading historical data...
Loading historical data...
Loading historical data...
Loading historical data...
Loading historical data...
Loading historical data...

Documentation

Showing up to 5 results
|